sat.trackr.live / text

‹ back to catalog

PCSAT (NO-44)

NORAD 26931 · 2001-043C

PAYLOAD ACTIVE UNKNOWN

§ Identity

Operator
Country
US
Launch date
2001-09-30
Launch site
KODAK
Launch vehicle
Mass (kg)
RCS (m²)
0.18

Purposes: comms

External: N2YO · Heavens-Above · Gunter

§ Orbital elements

Epoch: 2026-09-19T17:29:43.876320Z

Period
100.56 min
Inclination
67.0532°
Eccentricity
0.0005829
Mean motion
14.31984890 rev/d
Perigee alt
780.9 km
Apogee alt
789.3 km
Semi-major
7,163.2 km
B*
4.4010e-5
RAAN
359.7370°
Arg perigee
272.9554°
Mean anomaly
87.0881°
Rev number
30,398

§ Raw data

PCSAT (NO-44)1 26931U 01043C   26262.72898005  .00000035  00000+0  44010-4 0  99962 26931  67.0532 359.7370 0005829 272.9554  87.0881 14.31984890303980

JSON: /api/v1/satellites/26931 · /tle

For live sub-satellite position, see the globe view (requires WebGL).

§ Visibility from observer

Set your observer location to see the next 7 days of passes ≥ 10°. The values pass through the URL so the page stays shareable.

No JS? Fill the form by hand. The geolocation button needs JavaScript.

§ Radio — SatNOGS DB

ModeDescriptionDownlinkUplink
AFSK Mode V - R2 Backup APRS 1K2 144.390 MHz
AFSK Mode V/V APRS AFSK 145.825 MHz 145.825 MHz
AFSK PE0SAT - 1k2 AFSK APRS 145.827 MHz

3 transmitters · refreshed weekly from db.satnogs.org